This is the latest recevied weather packets stored in our database for station/object M3YFM-13. If no packets are shown the sender has not sent any weather packets the latest 1 day(s).
| Time | Temp. | Humidity | Pressure | Rain* | Wind** | Luminosity | Snow |
|---|---|---|---|---|---|---|---|
| 1778050473 | 8.33° C | 72% | - | 0 mm | 1.34 m/s, 68° | - | - |
| 1778050173 | 8.33° C | 72% | - | 0 mm | 1.34 m/s, 111° | - | - |
| 1778049873 | 7.78° C | 72% | - | 0 mm | 0.89 m/s, 158° | - | - |
| 1778049572 | 8.33° C | 72% | - | 0 mm | 0.89 m/s, 94° | - | - |
| 1778049272 | 8.33° C | 73% | - | 0 mm | 0.89 m/s, 122° | - | - |
| 1778048972 | 8.33° C | 73% | - | 0 mm | 0.89 m/s, 125° | - | - |
| 1778048671 | 8.33° C | 73% | - | 0 mm | 0.89 m/s, 103° | - | - |
| 1778048371 | 7.78° C | 73% | - | 0 mm | 0.89 m/s, 111° | - | - |
| 1778048071 | 7.78° C | 73% | - | 0 mm | 0.89 m/s, 91° | - | - |
| 1778047771 | 7.78° C | 74% | - | 0 mm | 1.34 m/s, 104° | - | - |
| 1778047470 | 7.78° C | 74% | - | 0 mm | 0.89 m/s, 129° | - | - |
| 1778047170 | 7.78° C | 74% | - | 0 mm | 1.34 m/s, 111° | - | - |
| 1778046870 | 7.78° C | 74% | - | 0 mm | 1.79 m/s, 94° | - | - |
| 1778046569 | 7.78° C | 74% | - | 0 mm | 0.89 m/s, 107° | - | - |
| 1778046269 | 7.78° C | 74% | - | 0 mm | 0.89 m/s, 97° | - | - |
| 1778045969 | 7.78° C | 74% | - | 0 mm | 0.89 m/s, 93° | - | - |
| 1778045669 | 7.78° C | 74% | - | 0 mm | 1.79 m/s, 105° | - | - |
| 1778045368 | 7.78° C | 74% | - | 0 mm | 1.34 m/s, 97° | - | - |
| 1778045068 | 8.33° C | 74% | - | 0 mm | 0.89 m/s, 89° | - | - |
| 1778044768 | 8.33° C | 74% | - | 0 mm | 1.34 m/s, 114° | - | - |
| 1778044468 | 7.78° C | 74% | - | 0 mm | 0.89 m/s, 76° | - | - |
| 1778044167 | 8.33° C | 74% | - | 0 mm | 0.89 m/s, 84° | - | - |
| 1778043867 | 8.33° C | 74% | - | 0 mm | 0.89 m/s, 87° | - | - |
| 1778043567 | 8.33° C | 73% | - | 0 mm | 0.45 m/s, 105° | - | - |
| 1778043266 | 8.33° C | 73% | - | 0 mm | 1.79 m/s, 93° | - | - |
* Rain since midnight (hover to see other rain measurements)
** Current wind speed in m/s (hover to see current wind gust speed)